www.pogodaiklimat.ru

Погода и климат >> Архив погоды >> Россия >> Курганская область >> Курган


АРХИВ ПОГОДЫ в Кургане

Время (UTC), дата Ветер
(напр.,м/с)
 
Видим.   Явления Облачность Т
(С)
Тd
(С)
f
(%)
Тe
(С)
Тes
(С)
Комфортность P
(гПа)
Po
(гПа)
Тmin
(С)
Tmax
(С)
R
(мм)
R24
(мм)
S
(см)
12 16.08 СЗ 2 50 км 8/3 1000 м
[Cb cap Ac trans Ci fib]
+25.7 +11.2 40 +27 +29 жарко 1015.0 1006.4
15 16.08 СЗ 1 20 км 4/0
[Ac trans Ci fib]
+22.5 +13.6 57 +26 +26 жарко 1015.6 1007.0 +27.0
18 16.08 штиль 0 10 км 3/0
[Ac trans]
+18.0 +13.9 77 +18 +18 тепло 1016.2 1007.4
21 16.08 штиль 0 10 км ясно +14.5 +13.0 91 +14 +14 по сезону 1016.8 1007.9
00 17.08 ЮВ 1 10 км 6/0
[Ac trans]
+13.4 +12.2 92 +14 +14 тепло 1017.4 1008.5
03 17.08 Ю 1 20 км 8/0
[Ac trans Ci fib]
+18.3 +13.8 75 +20 +22 тепло 1017.6 1008.9 +13.3
06 17.08 Ю 1 50 км 10/0
[Ac trans Ci fib]
+24.7 +13.6 50 +27 +35 жарко 1018.0 1009.4
09 17.08 З 1 50 км 10/3 1000 м
[Cu hum Ac trans Ci fib]
+27.6 +12.9 40 +29 +34 жарко 1017.2 1008.7
12 17.08 ЮВ 1 50 км 10/0
[Ci fib]
+29.2 +13.0 37 +31 +34 жарко 1016.5 1008.1
15 17.08 штиль 0 20 км 10/0
[Ac trans Ci fib]
+23.9 +15.8 60 +27 +27 жарко 1017.1 1008.5 +30.2
18 17.08 штиль 0 10 км 10/0
[Ac trans Ci fib]
+19.0 +15.9 82 +20 +20 тепло 1017.7 1009.0
21 17.08 штиль 0 10 км 10/0
[Ci fib]
+15.4 +13.8 90 +15 +15 тепло 1018.5 1009.7
00 18.08 С 1 10 км 10/0
[Ci fib]
+15.5 +14.3 93 +16 +16 тепло 1018.8 1010.0
03 18.08 штиль 0 20 км {туман} 10/0
[Ac trans Ci fib]
+19.9 +17.0 83 +22 +25 комфорт 1019.3 1010.6 +14.1
06 18.08 В 1 50 км {туман} 10/0
[Ci fib]
+26.4 +17.5 58 +31 +40 душно 1018.6 1010.1
09 18.08 ЮЗ 2 50 км 10/6 1000 м
[Sc Ci fib]
+29.2 +14.3 40 +31 +35 жарко 1018.0 1009.6
12 18.08 СЗ 3 50 км 10/4 1000 м
[Cb cap Ac trans Ci fib]
+26.9 +14.1 45 +29 +30 жарко 1018.8 1010.3
15 18.08 С 1 20 км 8/0
[Ac trans Ci fib]
+21.1 +16.5 75 +25 +25 комфорт 1020.5 1011.8 +29.8
18 18.08 С 3 10 км 4/0
[Ci fib]
+17.2 +14.4 84 +17 +17 тепло 1022.2 1013.4
21 18.08 С 2 10 км 5/0
[Ci fib]
+14.9 +13.2 90 +15 +15 тепло 1023.1 1014.2
00 19.08 С 1 10 км 10/10 1000 м
[Sc]
+15.6 +14.3 92 +16 +16 тепло 1024.4 1015.5
03 19.08 С 2 50 км 8/3 1000 м
[Sc Ci fib]
+17.6 +14.3 81 +18 +20 тепло 1025.2 1016.4 +14.7
06 19.08 СВ 2 50 км 10/4 1000 м
[Cu hum Ci fib]
+22.1 +11.9 52 +24 +29 комфорт 1025.7 1017.0
09 19.08 С 2 50 км 8/5 600 м
[Cu med, cong Ci fib]
+23.2 +10.7 45 +25 +30 комфорт 1025.6 1016.9
12 19.08 С 2 50 км 8/4 1000 м
[Sc diur, vesp Ac trans Ci fib]
+24.1 +9.1 38 +25 +26 комфорт 1025.0 1016.4
15 19.08 штиль 0 20 км 10/0
[Ac trans Ci fib]
+18.9 +11.7 63 +20 +20 тепло 1025.7 1016.9 +24.9
18 19.08 С 1 10 км 10/3 1000 м
[Sc Ac und]
+17.5 +12.0 70 +19 +19 тепло 1025.9 1017.1
21 19.08 С 1 10 км 10/0
[Ac und]
+16.3 +12.9 80 +17 +17 тепло 1025.6 1016.8
00 20.08 С 1 10 км 10/4 1000 м
[Sc Ac trans Ci fib]
+14.7 +12.5 87 +15 +15 тепло 1025.6 1016.6
03 20.08 штиль 0 10 км 10/3 1000 м
[Sc Ac trans Ci fib]
+16.8 +12.7 77 +17 +18 тепло 1025.3 1016.4 +14.7
06 20.08 С 1 50 км в посл. час ливневой дождь 10/4 1000 м
[Cb cap Ac und]
+23.1 +14.9 60 +27 +29 душно 1023.9 1015.2
09 20.08 Ю 1 20 км слаб. ливневой дождь 10/6 1000 м
[Cb cap Ac und]
+20.0 +15.1 73 +23 +25 комфорт 1022.3 1013.6
12 20.08 штиль 0 20 км слаб. ливневой дождь 10/6 1000 м
[Cb cap Ac und]
+19.8 +15.8 78 +22 +22 комфорт 1020.2 1011.5
15 20.08 штиль 0 20 км в посл. час ливневой дождь 10/6 600 м
[Cb cap Ac und]
+18.0 +16.6 92 +18 +18 по сезону 1018.7 1009.9 +23.8 5
18 20.08 СВ 2
{12}
10 км в посл. час ливневой дождь {гроза} 10/6 600 м
[Cb cap Ac trans]
+16.6 +15.6 94 +17 +17 тепло 1018.3 1009.5
21 20.08 В 1 10 км 10/6 600 м
[Cb cap Ac und]
+15.7 +14.7 94 +16 +16 тепло 1017.0 1008.2
00 21.08 СВ 2 10 км 10/6 1000 м
[Cb cap Ac und]
+15.2 +13.9 92 +15 +15 тепло 1016.5 1007.6
03 21.08 СВ 2 20 км в посл. час ливневой дождь 8/3 1000 м
[Cb cap Ac trans]
+15.1 +13.2 88 +15 +16 по сезону 1016.9 1008.0 +14.4 13
06 21.08 С 4 50 км {ливн. осадки} 4/4 1000 м
[Cb cap]
+18.5 +12.9 70 +19 +23 тепло 1017.1 1008.4
09 21.08 С 4 50 км 8/8 1000 м
[Cb cap]
+19.9 +10.5 55 +21 +23 комфорт 1017.5 1008.8
12 21.08 СВ 4
{10}
50 км 10/4 1000 м
[Cb cap Ac trans Ci fib]
+18.0 +10.0 59 +18 +19 прохладно 1018.8 1010.0
15 21.08 С 2 20 км 3/0
[Ci fib]
+14.7 +10.8 77 +14 +14 прохладно 1019.2 1010.3 +21.4
18 21.08 С 1 10 км 4/0
[Ci fib]
+11.2 +9.6 90 +11 +11 прохладно 1020.0 1011.0
21 21.08 СЗ 1 10 км 10/0
[Ac trans Ci fib]
+11.6 +10.5 93 +11 +11 по сезону 1019.8 1010.8
00 22.08 штиль 0 10 км 10/0
[Ac trans Ci fib]
+10.9 +9.8 93 +10 +10 по сезону 1019.5 1010.5
03 22.08 СЗ 2 20 км 10/3 1000 м
[Cb cap Ac trans Ci fib]
+12.9 +11.2 89 +12 +13 по сезону 1019.7 1010.8 +10.3
06 22.08 С 3 50 км 10/10 1000 м
[Sc]
+15.4 +11.7 79 +15 +15 прохладно 1020.0 1011.2
09 22.08 С 2 50 км 4/4 1000 м
[Sc]
+20.3 +12.6 61 +23 +29 комфорт 1019.4 1010.7
12 22.08 С 2 50 км ясно +22.6 +12.7 54 +25 +29 комфорт 1019.0 1010.3
15 22.08 СЗ 1 20 км 10/0
[Ci fib]
+17.9 +13.6 76 +19 +19 тепло 1019.7 1010.9 +22.8
18 22.08 штиль 0 10 км местами туман поземный ясно +14.2 +12.8 91 +14 +14 по сезону 1020.3 1011.4
21 22.08 штиль 0 10 км местами туман поземный ясно +12.5 +11.4 93 +12 +12 по сезону 1021.0 1012.1
00 23.08 Ю 1 4000 м дымка ясно +11.8 +10.7 93 +12 +12 по сезону 1021.1 1012.1
03 23.08 Ю 1 50 км 3/0
[Ci fib]
+14.6 +13.1 91 +15 +18 по сезону 1021.0 1012.2 +11.5
06 23.08 ЮЗ 2 20 км 10/0
[Ac trans Ci sp]
+22.2 +10.7 48 +24 +29 комфорт 1020.2 1011.5
09 23.08 ЮЗ 2 20 км 8/4 1000 м
[Cu hum Ci fib]
+25.3 +9.1 36 +26 +31 жарко 1018.7 1010.1

 

Местоположение метеостанции Курган (Курганская область, Россия): широта 55.45 долгота 65.40 высота над уровнем моря 72 м.

В архиве по умолчанию представлена погода в Кургане за последнюю неделю. Архивные данные за месяц целиком и за предыдущие месяцы, начиная с января 2011 года, Вы можете получить, выбрав интересующий диапазон дат из раскрывающегося списка и нажав кнопку "Ввод!".


*Определитесь, кто Вы:
робот инопланетянин человек

Внимание! Время в таблицах - всемирное. Для получения местного времени необходимо прибавить поправку, которая равна 5 ч.

Смотрите также архив погоды в соседних городах и на ближайших метеорологических станциях:

Погода в Памятном (Курганская область, Россия) (66 км)
Погода в Половинном (Курганская область, Россия) (85 км)
Погода в Куртамыше (Курганская область, Россия) (85 км)
Погода в Пресногорьковке (Костанайская область, Казахстан) (111 км)
Погода в Исетском (Тюменская область, Россия) (114 км)
Погода в Звериноголовском (Курганская область, Россия) (114 км)
Погода в Макушино (Курганская область, Россия) (122 км)
Погода в Шатрово (Курганская область, Россия) (128 км)
Погода в Шадринске (Курганская область, Россия) (129 км)
Погода в Шумихе (Курганская область, Россия) (134 км)

Пояснения к столбцам:

Ветер - указаны скорость ветра в м/с - средняя за 10 мин, порывы в срок и между сроками (в фигурных скобках) и направление, откуда дует ветер: С - северный, СВ - северо-восточный, В - восточный, ЮВ - юго-восточный, Ю - южный, ЮЗ - юго-западный, З - западный, СЗ - северо-западный.
Видимость - горизонтальная дальность видимости в метрах или километрах. При видимости от 1 до 10 км при отсутствии осадков обычно наблюдается дымка, при ухудшении видимости до 1 км и менее - туман. В сухую погоду видимость может ухудшаться дымом, пылью или мглою.
Явления - указаны атмосферные явления, наблюдавшиеся в срок или в последний час перед сроком; фигурными скобками обозначены явления, наблюдавшиеся между сроками (за 1-3 часа до срока); квадратными скобками обозначены град или гололедные отложения с указанием их диаметра в мм.
Облачность - указаны через наклонную черту общая и нижняя облачность в баллах и высота нижней границы облаков в метрах; квадратными скобками обозначены формы облаков: Ci - перистые, Cs - перисто-слоистые, Cc - перисто-кучевые, Ac - высококучевые, As - высокослоистые, Sc - слоисто-кучевые, Ns - слоисто-дождевые, Cu - кучевые, Cb - кучево-дождевые. Подробнее классификацию облаков см. в Атласе облаков (PDF).
T - Температура воздуха - температура, измеренная на высоте 2 м над землей.
Td - Температура точки росы - температура, при понижении до которой содержащийся в воздухе водяной пар достигнет насыщения.
f - Относительная влажность воздуха - влажноcть воздуха, измеренная на высоте 2 м над землей.
Te - Эффективная температура - температура, которую ощущает одетый по сезону человек в тени. Характеристика душности погоды. При расчете учитывается влияние влажности воздуха и скорости ветра на теплоощущения человека.
Tes - Эффективная температура на солнце - температура, которую ощущает человек, с поправкой на солнечный нагрев. Характеристика знойности погоды. Зависит от высоты солнца над горизонтом, облачности и скорости ветра. Ночью, в пасмурную погоду, а также при ветре 12 м/с и более поправка равна нулю.
P - Атмосферное давление - приведенное к уровню моря атмосферное давление.
Po - Атмосферное давление - измеренное на уровне метеостанции атмосферное давление.
Tmin - Минимальная температура - минимум температуры воздуха на высоте 2 м над землей.
Tmax - Максимальная температура - максимум температуры воздуха на высоте 2 м над землей.
R - Количество осадков - Количество выпавших осадков за период времени, мм. При наведении курсора мыши на число - период времени, за который выпало указанное количество осадков.
R24 - Количество осадков - Количество выпавших осадков за 24 часа, мм.
S - Снежный покров - Высота снежного покрова, см. При наведении курсора мыши на число - состояние снежного покрова и степень покрытия местности в баллах.